Погода в Тернополе

Хотите узнать прогноз погоды в Тернополе? Тогда Вам сюда: Погода в Тернополе

Поиск расширенной информации на нашем сайте:

Полезная информация:

Новости сайта



02.01.2020
Опубликован Долгосрочный прогноз погоды по городам России и ближнего зарубежья на январь 2020 года.
Карты: Прогноз на январь и февраль 2020 года, Сравнение прогнозируемой аномалии приземной температуры воздуха на январь 2020 года по разным моделям.




Погода в Тернополе - сегодня

Время (UTC), дата Ветер
(°,м/с) 
Видим.   Явления Облачность Т
(°С)
Тd
(°С)
f(%) Тe
(°С)
Pmin
(гПа)
dP
(гПа)
Po
(мм)
O2
(г/м3)
Тmin Tmax R s Состояние
почвы
12 16.04.21 270 (З) 10 км    10/8 450 м кучево-дожд., средняя 
[Cb calv|Ac und]
+4.8 +0.7 75 +2  1014.6  0.8  731  289           
15 16.04.21 270 (З) 11  10 км  слаб. ливневой дождь  9/6 540 м кучево-дожд., средняя 
[Cb calv|Ac trans]
+4.4 +1.4 81 1015.6  0.9  732  290           
18 16.04.21 260 (З) 10 км  {ливн. осадки}  8/3 1000 м кучево-дожд., средняя 
[Cb calv|Ac trans]
+3.4 +1.1 85 +1  1016.8  1.1  733  291    +5.4  0.0     
21 16.04.21 260 (З) 10 км  слаб. ливневой дождь  10/6 480 м кучево-дожд., средняя 
[Cb cap|Ac und]
+2.6 +1.3 91 1017.5  0.5  733  292           
00 17.04.21 270 (З) 10 км  {ливн. осадки}  10/4 1000 м кучево-дожд., средняя 
[Cb cap|Ac und]
+2.3 +1.3 93 -1  1017.4  -0.1  733  293      0.4     
03 17.04.21 270 (З) 4000 м  дымка  10/10 270 м 
[St]
+2.5 +1.7 94 1017.8  0.4  733  292           
06 17.04.21 280 (З) 4000 м  дымка  10/10 200 м 
[St]
+3 +2.2 94 1018.7  0.9  734  292  +2.2    0.4     
09 17.04.21 290 (З) 10 км    10/8 360 м средняя 
[St|Ac und]
+5.4 +3.3 86 +3  1018.7  0.4  734  290           
12 17.04.21 310 (СЗ) 10 км    10/6 540 м средняя 
[Sc|Ac und]
+7 +3.3 77 +6  1019  0.5  734  288           
15 17.04.21 290 (З) 10 км    9/5 720 м средняя 
[Sc|Ac und]
+7.8 +3.1 72 +7  1018.8  -0.1  734  287           
18 17.04.21 350 (С) 10 км    9/5 900 м средняя 
[Sc|Ac und]
+6.7 +3.2 78 +7  1019.9  0.9  735  289           
21 17.04.21 тихо ()   10 км    10/6 1000 м средняя 
[Sc|Ac und]
+5.8 +3.9 88 +6  1020.2  0.2  735  289           
00 18.04.21 тихо ()   4000 м  дымка  10/10 960 м 
[Sc]
+3.9 +3.2 95 +4  1020.1  -0.4  735  291           
03 18.04.21 360 (С) 4000 м  дымка  10/10 900 м 
[Sc]
+4 +3.5 97 +5  1019.8  -0.3  735  291           
06 18.04.21 050 (СВ) 6000 м  дымка  10/10 210 м 
[St]
+5.1 +3.9 92 +4  1019.9  0.3  735  290  +3.4         
09 18.04.21 300 (СЗ) 10 км    10/10 750 м 
[Sc]
+8.5 +3.4 70 +9  1018.9  -0.5  735  286           
12 18.04.21 310 (СЗ) 20000 м    9/4 1000 м верхняя 
[Cu hum|Cs]
+11.1 +2.1 54 +11  1017.5  -1  734  284           
15 18.04.21 030 (СВ) 10 км    10/10 1350 м 
[Sc]
+11.5 +3.2 57 +11  1017  -0.4  734  283           
18 18.04.21 тихо ()   10 км    10/10 1020 м 
[Sc]
+9.4 +4.8 73 +9  1017.9  0.6  734  285    +11.8       
21 18.04.21 тихо ()   10 км    10/3 1500 м средняя 
[Sc|Ac As]
+8.1 +5 81 +8  1017.9  -0.2  734  286           
00 19.04.21 тихо ()   10 км    10/10 960 м 
[Sc]
+7.6 +4.9 83 +8  1016.8  -1.1  733  287           
03 19.04.21 тихо ()   10 км    10/10 1050 м 
[Sc]
+6.3 +4.5 88 +6  1016.3  -0.7  732  288           
06 19.04.21 060 (СВ) 4000 м  дымка  9/9 840 м 
[Sc]
+7.7 +6 89 +7  1016.3  0.2  733  286  +6         
09 19.04.21 030 (СВ) 10 км    9/8 1000 м кучево-дожд., средняя 
[Cb cap|Ac trans]
+11 +5.9 71 +10  1015.4  -0.4  732  283           
12 19.04.21 тихо ()   10 км  {ливн. осадки}  9/8 1000 м кучево-дожд., средняя 
[Cb cap|Ac trans]
+10.2 +6.6 78 +10  1015.4  -0.1  732  283      0.5     
Время (UTC), дата Ветер
(°,м/с) 
Видим.   Явления Облачность Т
(°С)
Тd
(°С)
f(%) Тe
(°С)
Pmin
(гПа)
dP
(гПа)
Po
(мм)
O2
(г/м3)
Тmin Tmax R s Состояние
почвы

Для получения пояснительной информации подведите курсор к названию столбца.

ПОГОДА в Тернополе - архив

Всё, что Вы хотите узнать о погоде в Тернополе - удобно и подробно!

Выберите нужную дату (начиная с 1 января 2019* года) и нажмите кнопку "Найти".
Будут отображены архивные сводки погоды по пункту Тернополь, начиная с указанной даты.


Отображать данные в формате CSV (для использования в таблицах Excel)


Внимание! Наш архив погоды предназначен исключительно для личного некоммерческого использования в познавательных целях. Если Вам необходимы официальные справки о состоянии погоды (для производственных, юридических, коммерческих и т.п. целей), обращайтесь в органы Росгидромета.

*Примечание: данная дата относится к архиву по метеостанциям СССР (Россия, СНГ, Балтия).
Архив по метеостанциям Зарубежной Европы и Азии (кроме Китая) хранится 10 дней, по другим регионам земного шара (Китай, Африка, Америка, Австралия, Океания) - 1 день.

Тернополь - район местоположения метеостанции


Название, широта, долгота, высота метеостанции:
Тернополь 49.5°ш. 25.7°д. 329 м над ур. моря [Украина]

Дополнительная информация

В oтличие oт бoльшинства пoгoдных сайтoв мы публикуем пoдрoбную метеoинфoрмацию в детальнoм прoфессиoнальнoм фoрмате.

Характеристики температуры и влажнoсти вoздуха измеряются на высoте 2 м в тени вдали oт зданий и деревьев.
Скoрoсть ветра измеряется на высoте 10 м (на урoвне рoста челoвека скoрoсть ветра ниже в 1.5-2 раза). Если метеoстанция нахoдится в гoрoде или в лесу, тo скoрoсть ветра занижена на 2-4 м/с пo сравнению с oткрытым местoм. Скoрoсть ветра над акватoриями крупных рек и oзёр, а также на вершинах хoлмoв на 2-5 м/с выше, чем в oбычных услoвиях.
Атмoсфернoе давление в разных тoчках местнoсти мoжет значительнo oтличаться oт давления на метеoстанции, в зависимoсти oт услoвий рельефа (при пoдъёме на 10 м давление пoнижается примернo на 1 мм рт.ст.).